Flag Weather past 2 weeks in Cardiff, Wales, United Kingdom

Now
54 °F

Overcast.


Feels Like: 49 °F
Forecast: N/A
Wind: 18 mph from Northeast

Location: Wales Airport

Current Time: Nov 28, 2014 at 6:16:45 PM

Latest Report: Nov 28, 2014 at 5:50 PM


Visibility: N/A

Pressure: 29.59 "Hg

Humidity: 88%

Dew point: 50 °F

Location of CardiffLocation

Historic Weather in Cardiff — Graph

°F

Cardiff temperature yesterday

Maximum temperature yesterday: 48 °F (at 6:20 PM)
Minimum temperature yesterday: 43 °F (at 6:50 AM)
Average temperature yesterday: 45 °F

Past Weeks' High & Low Weather Summary

 TemperatureHumidityPressure
High57 °F (Nov 14, 1:50 PM)100% (Nov 13, 8:20 PM)30.33 "Hg (Nov 13, 8:20 PM)
Low34 °F (Nov 24, 3:50 AM)72% (Nov 14, 11:20 AM)29.27 "Hg (Nov 14, 2:50 AM)
Average47 °F93%29.82 "Hg
* Reported Nov 13 5:20 PM — Nov 28 5:20 PM, Cardiff, Weather by CustomWeather, © 2014

Note: Actual official high and low records may vary slightly from our data, if they occured in-between our weather recording intervals... More about our weather records

Advertising

Cardiff weather history for previous 24 hours

 ConditionsComfort  
Time TempWeatherWind HumidityBarometerVisibility
5:20 PM
Nov 28
54 °FOvercast.16 mph88%29.59 "HgN/A
4:50 PM54 °FOvercast.17 mph88%29.59 "HgN/A
4:20 PM54 °FOvercast.16 mph88%29.56 "HgN/A
3:50 PM54 °FOvercast.16 mph88%29.56 "HgN/A
3:20 PM52 °FOvercast.16 mph94%29.56 "HgN/A
2:50 PM52 °FOvercast.17 mph88%29.56 "HgN/A
2:20 PM52 °FOvercast.16 mph88%29.56 "HgN/A
1:50 PM52 °FOvercast.15 mph88%29.56 "HgN/A
1:20 PM52 °FOvercast.16 mph88%29.56 "HgN/A
12:50 PM52 °FOvercast.16 mph88%29.53 "HgN/A
12:20 PM50 °FOvercast.16 mph94%29.53 "HgN/A
11:50 AM50 °FOvercast.17 mph88%29.53 "HgN/A
11:20 AM50 °FOvercast.16 mph88%29.56 "HgN/A
10:50 AM50 °FOvercast.15 mph88%29.56 "HgN/A
10:20 AM50 °FOvercast.15 mph88%29.56 "HgN/A
9:50 AM50 °FOvercast.17 mph88%29.56 "HgN/A
9:20 AM50 °FLow clouds.16 mph88%29.53 "HgN/A
8:50 AM50 °FOvercast.15 mph88%29.53 "HgN/A
8:20 AM50 °FOvercast.15 mph88%29.53 "HgN/A
7:50 AM50 °FOvercast.13 mph88%29.53 "HgN/A
7:20 AM50 °FOvercast.15 mph94%29.50 "HgN/A
6:50 AM50 °FLow clouds.14 mph94%29.50 "Hg5 mi
6:20 AM50 °FOvercast.13 mph94%29.50 "Hg4 mi
5:50 AM50 °FFog.14 mph94%29.50 "Hg3 mi
5:20 AM50 °FFog.14 mph94%29.50 "Hg3 mi
4:50 AM50 °FOvercast.14 mph94%29.47 "Hg4 mi
4:20 AM48 °FFog.14 mph100%29.47 "Hg3 mi
3:20 AM48 °FFog.14 mph100%29.47 "Hg3 mi
2:50 AM48 °FLow clouds.15 mph100%29.47 "Hg4 mi
2:20 AM48 °FPassing clouds.16 mph100%29.47 "Hg4 mi
1:50 AM48 °FPassing clouds.15 mph94%29.47 "Hg4 mi
1:20 AM46 °FFog.15 mph100%29.47 "Hg3 mi
12:50 AM46 °FFog.15 mph100%29.47 "Hg3 mi
12:20 AM46 °FFog.14 mph100%29.47 "Hg3 mi
11:50 PM
Nov 27
46 °FFog.14 mph93%29.47 "Hg3 mi
11:20 PM46 °FPassing clouds.14 mph100%29.47 "Hg4 mi
10:50 PM48 °FPassing clouds.13 mph94%29.47 "Hg4 mi
10:20 PM46 °FPassing clouds.12 mph100%29.47 "Hg4 mi
9:50 PM46 °FPassing clouds.12 mph100%29.50 "Hg4 mi
9:20 PM48 °FLow clouds.12 mph94%29.50 "Hg4 mi
8:50 PM48 °FLow clouds.10 mph94%29.50 "Hg4 mi
8:20 PM48 °FLow clouds.10 mph94%29.50 "Hg4 mi
7:50 PM48 °FLow clouds.12 mph94%29.50 "Hg4 mi
7:20 PM48 °FLow clouds.12 mph94%29.50 "Hg5 mi
6:50 PM48 °FLow clouds.13 mph94%29.50 "Hg5 mi
6:20 PM48 °FLow clouds.12 mph94%29.50 "Hg5 mi
Weather by CustomWeather, © 2014

See weather overviewHow to use our weather pages